| time (UTC) | temp C | wind direction | speed KPH | gust KPH | rain 1hr cm | rain 24hr cm | rain mn cm | humidity % | barometer mb |
| 20260831152021 | 17 | 0.0 | 0.0 | 0.00 | 2.67 | 0.13 | 99 | 1016.1 | |
| 20260831151520 | 17 | 0.0 | 0.0 | 0.00 | 2.67 | 0.13 | 99 | 1016.4 | |
| 20260831151018 | 16 | 0.0 | 0.0 | 0.00 | 2.67 | 0.13 | 99 | 1016.5 | |
| 20260831150516 | 16 | 0.0 | 0.0 | 0.00 | 2.67 | 0.13 | 99 | 1016.7 | |
| 20260831150015 | 16 | 0.0 | 0.0 | 0.00 | 2.67 | 0.13 | 99 | 1016.9 | |
| 20260831145513 | 16 | 0.0 | 0.0 | 0.03 | 2.67 | 0.13 | 99 | 1017.1 | |
| 20260831145011 | 16 | 0.0 | 0.0 | 0.03 | 2.67 | 0.13 | 99 | 1017.2 | |
| 20260831144509 | 16 | 0.0 | 0.0 | 0.10 | 2.67 | 0.13 | 99 | 1017.7 | |
| 20260831144007 | 16 | 0.0 | 0.0 | 0.10 | 2.67 | 0.13 | 99 | 1017.8 | |
| 20260831143505 | 16 | 0.0 | 0.0 | 0.10 | 2.67 | 0.13 | 99 | 1017.8 | |
| 20260831143003 | 16 | 0.0 | 0.0 | 0.10 | 2.67 | 0.13 | 99 | 1017.8 | |
| 20260831142502 | 16 | 0.0 | 0.0 | 0.13 | 2.67 | 0.13 | 99 | 1017.8 | |
| 20260831142000 | 16 | 0.0 | 0.0 | 0.13 | 2.67 | 0.13 | 99 | 1018.0 | |
| 20260831141458 | 16 | 0.0 | 0.0 | 0.13 | 2.67 | 0.13 | 99 | 1017.9 | |
| 20260831140957 | 15 | 0.0 | 0.0 | 0.13 | 2.67 | 0.13 | 99 | 1018.4 | |
| 20260831140455 | 15 | 0.0 | 0.0 | 0.13 | 2.67 | 0.13 | 99 | 1018.7 | |
| 20260831135953 | 15 | 0.0 | 0.0 | 0.13 | 2.67 | 0.13 | 99 | 1019.3 | |
| 20260831135451 | 15 | 0.0 | 0.0 | 0.13 | 2.67 | 0.13 | 99 | 1018.9 | |
| 20260831134950 | 16 | 0.0 | 0.0 | 0.10 | 2.64 | 0.10 | 99 | 1019.0 | |
| 20260831134448 | 16 | 0.0 | 0.0 | 0.05 | 2.59 | 0.05 | 99 | 1018.7 | |
| 20260831133946 | 16 | 0.0 | 0.0 | 0.03 | 2.57 | 0.03 | 99 | 1019.0 | |
| 20260831133444 | 16 | 0.0 | 0.0 | 0.03 | 2.57 | 0.03 | 99 | 1019.3 | |
| 20260831132943 | 16 | 0.0 | 0.0 | 0.03 | 2.57 | 0.03 | 97 | 1019.1 | |
| 20260831132441 | 17 | 0.0 | 0.0 | 0.00 | 2.54 | 0.00 | 94 | 1018.5 | |
| 20260831131939 | 18 | 0.0 | 0.0 | 0.00 | 2.54 | 0.00 | 92 | 1016.7 | |
| 20260831131437 | 18 | 0.0 | 0.0 | 0.00 | 2.54 | 0.00 | 94 | 1016.5 | |
| 20260831130935 | 17 | 0.0 | 0.0 | 0.00 | 2.54 | 0.00 | 95 | 1016.5 | |
| 20260831130432 | 17 | 0.0 | 0.0 | 0.00 | 2.54 | 0.00 | 96 | 1016.5 | |
| 20260831125930 | 17 | 0.0 | 0.0 | 0.00 | 2.54 | 0.00 | 96 | 1016.4 | |
| 20260831125428 | 17 | 0.0 | 0.0 | 0.00 | 2.54 | 0.00 | 98 | 1016.6 | |
| 20260831124926 | 17 | 0.0 | 0.0 | 0.00 | 2.54 | 0.00 | 98 | 1016.9 | |
| 20260831124424 | 17 | 0.0 | 0.0 | 0.00 | 2.54 | 0.00 | 98 | 1017.1 | |
| 20260831123922 | 17 | 0.0 | 0.0 | 0.00 | 2.54 | 0.00 | 98 | 1016.7 | |
| 20260831123419 | 17 | 0.0 | 0.0 | 0.00 | 2.54 | 0.00 | 95 | 1016.6 | |
| 20260831122917 | 17 | 0.0 | 0.0 | 0.00 | 2.54 | 0.00 | 93 | 1016.8 | |
| 20260831122415 | 18 | 0.0 | 0.0 | 0.00 | 2.54 | 0.00 | 96 | 1016.8 | |
| 20260831121913 | 17 | 0.0 | 0.0 | 0.00 | 2.54 | 0.00 | 97 | 1016.7 | |
| 20260831121410 | 17 | 0.0 | 0.0 | 0.00 | 2.54 | 0.00 | 99 | 1016.5 | |
| 20260831120908 | 16 | 0.0 | 0.0 | 0.00 | 2.54 | 0.00 | 99 | 1016.4 | |
| 20260831120406 | 16 | 0.0 | 0.0 | 0.00 | 2.54 | 0.00 | 99 | 1016.4 | |
| 20260831115903 | 16 | 0.0 | 0.0 | 0.00 | 2.54 | 0.00 | 99 | 1016.4 | |
| 20260831115401 | 16 | 0.0 | 0.0 | 0.00 | 2.54 | 0.00 | 99 | 1016.5 | |
| 20260831114859 | 16 | 0.0 | 0.0 | 0.00 | 2.54 | 0.00 | 99 | 1016.5 | |
| 20260831114357 | 16 | 0.0 | 0.0 | 0.00 | 2.54 | 0.00 | 99 | 1016.4 | |
| 20260831113856 | 16 | 0.0 | 0.0 | 0.00 | 2.54 | 0.00 | 99 | 1016.5 | |
| 20260831113354 | 16 | 0.0 | 0.0 | 0.00 | 2.54 | 0.00 | 99 | 1016.3 | |
| 20260831112852 | 16 | 0.0 | 0.0 | 0.00 | 2.54 | 0.00 | 99 | 1016.3 | |
| 20260831112350 | 16 | 0.0 | 0.0 | 0.00 | 2.54 | 0.00 | 99 | 1016.3 | |
| 20260831111849 | 16 | 0.0 | 0.0 | 0.00 | 2.54 | 0.00 | 99 | 1016.1 | |
| 20260831111347 | 16 | 0.0 | 0.0 | 0.00 | 2.54 | 0.00 | 99 | 1016.2 | |
| 20260831110845 | 16 | 0.0 | 0.0 | 0.00 | 2.54 | 0.00 | 99 | 1016.3 | |
| 20260831110344 | 16 | 0.0 | 0.0 | 0.00 | 2.54 | 0.00 | 99 | 1016.4 | |
| 20260831105842 | 16 | 0.0 | 0.0 | 0.00 | 2.54 | 0.00 | 99 | 1016.2 | |
| 20260831105340 | 16 | 0.0 | 0.0 | 0.00 | 2.54 | 0.00 | 99 | 1016.0 | |
| 20260831104838 | 15 | 0.0 | 0.0 | 0.00 | 2.54 | 0.00 | 99 | 1015.9 | |
| 20260831104337 | 15 | 0.0 | 0.0 | 0.00 | 2.54 | 0.00 | 99 | 1016.0 | |
| 20260831103835 | 15 | 0.0 | 0.0 | 0.00 | 2.54 | 0.00 | 99 | 1016.0 | |
| 20260831103334 | 15 | 0.0 | 0.0 | 0.00 | 2.54 | 0.00 | 99 | 1015.9 | |
| 20260831102832 | 15 | 0.0 | 0.0 | 0.00 | 2.54 | 0.00 | 99 | 1015.9 | |
| 20260831102331 | 15 | 0.0 | 0.0 | 0.00 | 2.54 | 0.00 | 99 | 1015.8 | |
| 20260831101829 | 15 | 0.0 | 0.0 | 0.00 | 2.54 | 0.00 | 99 | 1015.7 | |
| 20260831101327 | 15 | 0.0 | 0.0 | 0.00 | 2.54 | 0.00 | 99 | 1015.8 | |
| 20260831100825 | 15 | 0.0 | 0.0 | 0.00 | 2.54 | 0.00 | 99 | 1015.7 | |
| 20260831100324 | 15 | 0.0 | 0.0 | 0.00 | 2.54 | 0.00 | 99 | 1015.7 | |
| 20260831095822 | 15 | 0.0 | 0.0 | 0.00 | 2.54 | 0.00 | 99 | 1015.7 | |
| 20260831095320 | 15 | 0.0 | 0.0 | 0.00 | 2.54 | 0.00 | 99 | 1015.6 | |
| 20260831094819 | 15 | 0.0 | 0.0 | 0.00 | 2.54 | 0.00 | 99 | 1015.6 | |
| 20260831094317 | 15 | 0.0 | 0.0 | 0.00 | 2.54 | 0.00 | 99 | 1015.6 | |
| 20260831093815 | 15 | 0.0 | 0.0 | 0.00 | 2.54 | 0.00 | 99 | 1015.7 | |
| 20260831093313 | 15 | 0.0 | 0.0 | 0.00 | 2.54 | 0.00 | 99 | 1015.9 | |
| 20260831092811 | 15 | 0.0 | 0.0 | 0.00 | 2.54 | 0.00 | 99 | 1016.1 | |
| 20260831092310 | 15 | 0.0 | 0.0 | 0.00 | 2.54 | 0.00 | 99 | 1016.3 | |
| 20260831091808 | 15 | 0.0 | 0.0 | 0.00 | 2.54 | 0.00 | 99 | 1016.3 | |
| 20260831091307 | 15 | 0.0 | 0.0 | 0.00 | 2.54 | 0.00 | 99 | 1016.4 | |
| 20260831090805 | 15 | 0.0 | 0.0 | 0.00 | 2.54 | 0.00 | 99 | 1016.5 | |
| 20260831090304 | 15 | 0.0 | 0.0 | 0.00 | 2.54 | 0.00 | 99 | 1016.5 | |
| 20260831085801 | 15 | 0.0 | 0.0 | 0.00 | 2.77 | 0.00 | 99 | 1016.4 | |
| 20260831085300 | 15 | 0.0 | 0.0 | 0.00 | 2.77 | 0.00 | 99 | 1016.4 | |
| 20260831084758 | 15 | 0.0 | 0.0 | 0.00 | 2.77 | 0.00 | 99 | 1016.6 | |
| 20260831084257 | 15 | 0.0 | 0.0 | 0.00 | 2.77 | 0.00 | 99 | 1016.7 | |
| 20260831083755 | 15 | 0.0 | 0.0 | 0.00 | 2.77 | 0.00 | 99 | 1016.5 | |
| 20260831083254 | 15 | 0.0 | 0.0 | 0.00 | 2.77 | 0.00 | 99 | 1016.6 | |
| 20260831082752 | 15 | 0.0 | 0.0 | 0.00 | 2.77 | 0.00 | 99 | 1016.7 | |
| 20260831082250 | 15 | 0.0 | 0.0 | 0.00 | 2.77 | 0.00 | 99 | 1016.6 | |
| 20260831081749 | 15 | 0.0 | 0.0 | 0.00 | 2.77 | 0.00 | 99 | 1016.8 | |
| 20260831081247 | 15 | 0.0 | 0.0 | 0.00 | 2.77 | 0.00 | 99 | 1017.1 | |
| 20260831080745 | 15 | 0.0 | 0.0 | 0.00 | 2.77 | 0.00 | 99 | 1017.1 | |
| 20260831080244 | 15 | 0.0 | 0.0 | 0.00 | 2.77 | 0.00 | 99 | 1017.1 | |
| 20260831075742 | 15 | 0.0 | 0.0 | 0.00 | 3.20 | 0.00 | 99 | 1016.8 | |
| 20260831075240 | 15 | 0.0 | 0.0 | 0.00 | 3.20 | 0.00 | 99 | 1016.8 | |
| 20260831074738 | 15 | 0.0 | 0.0 | 0.00 | 3.20 | 0.00 | 99 | 1017.0 | |
| 20260831074237 | 15 | 0.0 | 0.0 | 0.00 | 3.20 | 0.00 | 99 | 1017.3 | |
| 20260831073735 | 15 | 0.0 | 0.0 | 0.00 | 3.20 | 0.00 | 99 | 1017.5 | |
| 20260831073234 | 15 | 0.0 | 0.0 | 0.00 | 3.20 | 0.00 | 99 | 1017.6 | |
| 20260831072732 | 15 | 0.0 | 0.0 | 0.00 | 3.20 | 0.00 | 99 | 1017.5 | |
| 20260831072230 | 15 | 0.0 | 0.0 | 0.00 | 3.20 | 0.00 | 99 | 1017.1 | |
| 20260831071729 | 15 | 0.0 | 0.0 | 0.00 | 3.20 | 0.00 | 99 | 1017.1 | |
| 20260831071227 | 15 | 0.0 | 0.0 | 0.00 | 3.20 | 0.00 | 99 | 1017.2 | |
| 20260831070726 | 15 | 0.0 | 0.0 | 0.00 | 3.20 | 0.00 | 99 | 1017.1 | |
| 20260831070225 | 15 | 0.0 | 0.0 | 0.00 | 3.20 | 0.00 | 99 | 1017.0 | |
| 20260831065723 | 15 | 0.0 | 0.0 | 0.00 | 3.20 | 0.00 | 99 | 1017.2 | |
| 20260831065222 | 15 | 0.0 | 0.0 | 0.00 | 3.20 | 0.00 | 99 | 1017.4 | |
| 20260831064721 | 15 | 0.0 | 0.0 | 0.00 | 3.20 | 0.00 | 99 | 1017.6 | |
| 20260831064219 | 15 | 0.0 | 0.0 | 0.00 | 3.20 | 0.00 | 99 | 1017.7 | |
| 20260831063718 | 15 | 0.0 | 0.0 | 0.00 | 3.20 | 0.00 | 99 | 1017.8 | |
| 20260831063216 | 15 | 0.0 | 0.0 | 0.00 | 3.20 | 0.00 | 99 | 1017.8 | |
| 20260831062714 | 15 | 0.0 | 0.0 | 0.00 | 3.20 | 0.00 | 99 | 1017.9 | |
| 20260831062212 | 15 | 0.0 | 0.0 | 0.00 | 3.20 | 0.00 | 99 | 1018.0 | |
| 20260831061711 | 15 | 0.0 | 0.0 | 0.00 | 3.20 | 0.00 | 99 | 1018.0 | |
| 20260831061209 | 15 | 0.0 | 0.0 | 0.00 | 3.20 | 0.00 | 99 | 1018.4 | |
| 20260831060707 | 15 | 0.0 | 0.0 | 0.00 | 3.20 | 0.00 | 99 | 1018.5 | |
| 20260831060206 | 15 | 0.0 | 0.0 | 0.00 | 3.20 | 0.00 | 99 | 1018.2 | |
| 20260831055704 | 15 | 0.0 | 0.0 | 0.00 | 3.20 | 0.00 | 99 | 1017.9 | |
| 20260831055203 | 15 | 0.0 | 0.0 | 0.00 | 3.20 | 0.00 | 99 | 1018.5 | |
| 20260831054701 | 15 | 0.0 | 0.0 | 0.00 | 3.20 | 0.00 | 99 | 1018.3 | |
| 20260831054159 | 15 | 0.0 | 0.0 | 0.00 | 3.20 | 0.00 | 99 | 1018.3 | |
| 20260831053657 | 15 | 0.0 | 0.0 | 0.00 | 3.20 | 0.00 | 99 | 1018.7 | |
| 20260831053156 | 15 | 0.0 | 0.0 | 0.00 | 3.20 | 0.00 | 99 | 1018.6 | |
| 20260831052654 | 15 | 0.0 | 0.0 | 0.00 | 3.20 | 0.00 | 99 | 1018.7 | |
| 20260831052153 | 15 | 0.0 | 0.0 | 0.00 | 3.20 | 0.00 | 99 | 1018.3 | |
| 20260831051651 | 15 | 0.0 | 0.0 | 0.00 | 3.20 | 0.00 | 99 | 1018.5 | |
| 20260831051150 | 15 | 0.0 | 0.0 | 0.00 | 3.20 | 0.00 | 99 | 1017.5 | |
| 20260831050648 | 15 | 0.0 | 0.0 | 0.00 | 3.20 | 0.00 | 99 | 1017.3 | |
| 20260831050147 | 15 | 0.0 | 0.0 | 0.00 | 3.20 | 0.00 | 99 | 1017.2 | |
| 20260831045645 | 15 | 0.0 | 0.0 | 0.00 | 3.20 | 0.00 | 99 | 1016.8 | |
| 20260831045144 | 15 | 0.0 | 0.0 | 0.00 | 3.20 | 0.00 | 99 | 1016.8 | |
| 20260831044642 | 15 | 0.0 | 0.0 | 0.00 | 3.20 | 0.00 | 99 | 1016.8 | |
| 20260831044141 | 15 | 0.0 | 0.0 | 0.00 | 3.20 | 0.00 | 99 | 1016.8 | |
| 20260831043639 | 15 | 0.0 | 0.0 | 0.00 | 3.20 | 0.00 | 99 | 1016.9 | |
| 20260831043138 | 15 | 0.0 | 0.0 | 0.00 | 3.20 | 0.00 | 99 | 1016.9 | |
| 20260831042636 | 15 | 0.0 | 0.0 | 0.00 | 3.20 | 0.00 | 99 | 1017.0 | |
| 20260831042134 | 15 | 0.0 | 0.0 | 0.00 | 3.20 | 0.00 | 99 | 1016.9 | |
| 20260831041633 | 15 | 0.0 | 0.0 | 0.00 | 3.20 | 0.00 | 99 | 1017.0 | |
| 20260831041131 | 15 | 0.0 | 0.0 | 0.00 | 3.20 | 0.00 | 99 | 1016.9 | |
| 20260831040630 | 15 | 0.0 | 0.0 | 0.00 | 3.20 | 0.00 | 99 | 1017.1 | |
| 20260831040128 | 15 | 0.0 | 0.0 | 0.00 | 3.20 | 0.00 | 99 | 1017.1 | |
| 20260831035627 | 15 | 0.0 | 0.0 | 0.00 | 3.20 | 0.00 | 99 | 1017.2 | |
| 20260831035125 | 15 | 0.0 | 0.0 | 0.00 | 3.20 | 0.00 | 99 | 1017.3 | |
| 20260831034623 | 15 | 0.0 | 0.0 | 0.00 | 3.20 | 0.00 | 99 | 1017.4 | |
| 20260831034122 | 15 | 0.0 | 0.0 | 0.00 | 3.20 | 0.00 | 99 | 1017.7 | |
| 20260831033620 | 15 | 0.0 | 0.0 | 0.00 | 3.20 | 0.00 | 99 | 1017.6 | |
| 20260831033119 | 15 | 0.0 | 0.0 | 0.00 | 3.20 | 0.00 | 99 | 1017.6 | |
| 20260831032617 | 15 | 0.0 | 0.0 | 0.00 | 3.20 | 0.00 | 99 | 1017.3 | |
| 20260831032116 | 15 | 0.0 | 0.0 | 0.00 | 3.20 | 0.00 | 99 | 1017.3 | |
| 20260831031614 | 15 | 0.0 | 0.0 | 0.20 | 3.20 | 0.00 | 99 | 1017.5 | |
| 20260831031112 | 15 | 0.0 | 0.0 | 0.20 | 3.20 | 0.00 | 99 | 1017.8 | |
| 20260831030611 | 15 | 0.0 | 0.0 | 0.66 | 3.20 | 0.00 | 99 | 1018.0 | |
| 20260831030109 | 15 | 0.0 | 0.0 | 0.66 | 3.20 | 0.00 | 99 | 1018.2 | |
| 20260831025607 | 15 | 0.0 | 0.0 | 0.66 | 3.20 | 3.20 | 99 | 1018.3 | |
| 20260831025106 | 15 | 0.0 | 0.0 | 0.66 | 3.20 | 3.20 | 99 | 1018.0 | |
| 20260831024604 | 15 | 0.0 | 0.0 | 0.69 | 3.20 | 3.20 | 99 | 1017.8 | |
| 20260831024103 | 15 | 0.0 | 0.0 | 0.69 | 3.20 | 3.20 | 99 | 1017.9 | |
| 20260831023601 | 15 | 0.0 | 0.0 | 0.74 | 3.20 | 3.20 | 99 | 1018.0 | |
| 20260831023100 | 15 | 0.0 | 0.0 | 0.74 | 3.20 | 3.20 | 99 | 1018.2 | |
| 20260831022558 | 15 | 0.0 | 0.0 | 0.74 | 3.20 | 3.20 | 99 | 1018.7 | |
| 20260831022056 | 15 | 0.0 | 0.0 | 0.74 | 3.20 | 3.20 | 99 | 1018.8 | |
| 20260831021555 | 15 | 0.0 | 0.0 | 0.71 | 3.17 | 3.17 | 99 | 1018.3 | |
| 20260831021053 | 15 | 0.0 | 0.0 | 0.61 | 3.07 | 3.07 | 99 | 1018.4 | |
| 20260831020552 | 15 | 0.0 | 0.0 | 0.15 | 2.62 | 2.62 | 99 | 1019.6 | |
| 20260831020050 | 15 | 0.0 | 0.0 | 0.08 | 2.54 | 2.54 | 99 | 1018.4 | |
| 20260831015547 | 15 | 0.0 | 0.0 | 0.08 | 2.54 | 2.54 | 99 | 1017.3 | |
| 20260831015045 | 15 | 0.0 | 0.0 | 0.08 | 2.54 | 2.54 | 99 | 1017.1 | |
| 20260831014543 | 15 | 0.0 | 0.0 | 0.05 | 2.51 | 2.51 | 99 | 1017.0 | |
| 20260831014041 | 15 | 0.0 | 0.0 | 0.05 | 2.51 | 2.51 | 99 | 1017.1 | |
| 20260831013538 | 15 | 0.0 | 0.0 | 0.05 | 2.51 | 2.51 | 99 | 1017.0 | |
| 20260831013036 | 15 | 0.0 | 0.0 | 0.00 | 2.46 | 2.46 | 99 | 1017.0 | |
| 20260831012533 | 15 | 0.0 | 0.0 | 0.00 | 2.46 | 2.46 | 99 | 1017.0 | |
| 20260831012031 | 15 | 0.0 | 0.0 | 0.00 | 2.46 | 2.46 | 99 | 1016.9 | |
| 20260831011529 | 15 | 0.0 | 0.0 | 0.00 | 2.46 | 2.46 | 99 | 1016.9 | |
| 20260831011027 | 15 | 0.0 | 0.0 | 0.00 | 2.46 | 2.46 | 99 | 1017.1 | |
| 20260831010525 | 15 | 0.0 | 0.0 | 0.08 | 2.46 | 2.46 | 99 | 1017.3 | |
| 20260831010023 | 15 | 0.0 | 0.0 | 0.08 | 2.46 | 2.46 | 99 | 1017.5 | |
| 20260831005520 | 15 | 0.0 | 0.0 | 0.08 | 2.46 | 2.46 | 99 | 1017.5 | |
| 20260831005018 | 15 | 0.0 | 0.0 | 0.08 | 2.46 | 2.46 | 99 | 1017.4 | |
| 20260831004515 | 15 | 0.0 | 0.0 | 0.08 | 2.46 | 2.46 | 99 | 1017.4 | |
| 20260831004013 | 15 | 0.0 | 0.0 | 0.08 | 2.46 | 2.46 | 99 | 1017.4 | |
| 20260831003510 | 15 | 0.0 | 0.0 | 0.08 | 2.46 | 2.46 | 99 | 1017.3 | |
| 20260831003007 | 15 | 0.0 | 0.0 | 0.08 | 2.46 | 2.46 | 99 | 1017.8 | |
| 20260831002505 | 15 | 0.0 | 0.0 | 0.10 | 2.46 | 2.46 | 99 | 1018.1 | |
| 20260831002003 | 15 | 0.0 | 0.0 | 0.10 | 2.46 | 2.46 | 99 | 1018.0 | |
| 20260831001500 | 15 | 0.0 | 0.0 | 0.10 | 2.46 | 2.46 | 99 | 1017.7 | |
| 20260831000958 | 15 | 0.0 | 0.0 | 0.13 | 2.46 | 2.46 | 99 | 1018.0 | |
| 20260831000456 | 15 | 0.0 | 0.0 | 0.10 | 2.44 | 2.44 | 99 | 1018.2 | |
| 20260830235953 | 15 | 0.0 | 0.0 | 0.05 | 2.39 | 2.39 | 99 | 1018.5 | |
| 20260830235451 | 15 | 0.0 | 0.0 | 0.05 | 2.39 | 2.39 | 99 | 1018.7 | |
| 20260830234948 | 15 | 0.0 | 0.0 | 0.05 | 2.39 | 2.39 | 99 | 1017.9 | |
| 20260830234446 | 15 | 0.0 | 0.0 | 0.05 | 2.39 | 2.39 | 99 | 1017.4 | |
| 20260830233944 | 15 | 0.0 | 0.0 | 0.05 | 2.39 | 2.39 | 99 | 1017.5 | |
| 20260830233441 | 15 | 0.0 | 0.0 | 0.05 | 2.39 | 2.39 | 99 | 1017.6 | |
| 20260830232939 | 15 | 0.0 | 0.0 | 0.05 | 2.39 | 2.39 | 99 | 1017.9 | |
| 20260830232437 | 15 | 0.0 | 0.0 | 0.03 | 2.39 | 2.39 | 99 | 1018.8 | |
| 20260830231936 | 15 | 0.0 | 0.0 | 0.03 | 2.39 | 2.39 | 99 | 1018.0 | |
| 20260830231435 | 15 | 0.0 | 0.0 | 0.03 | 2.39 | 2.39 | 99 | 1017.9 | |
| 20260830230933 | 15 | 0.0 | 0.0 | 0.08 | 2.39 | 2.39 | 99 | 1018.0 | |
| 20260830230431 | 15 | 0.0 | 0.0 | 0.08 | 2.39 | 2.39 | 99 | 1018.0 | |
| 20260830225928 | 15 | 0.0 | 0.0 | 0.10 | 2.36 | 2.36 | 99 | 1018.2 | |
| 20260830225425 | 15 | 0.0 | 0.0 | 0.10 | 2.36 | 2.36 | 99 | 1018.0 | |
| 20260830224923 | 15 | 0.0 | 0.0 | 0.18 | 2.36 | 2.36 | 99 | 1017.9 | |
| 20260830224420 | 15 | 0.0 | 0.0 | 0.18 | 2.36 | 2.36 | 99 | 1017.7 | |
| 20260830223918 | 15 | 0.0 | 0.0 | 0.23 | 2.36 | 2.36 | 99 | 1017.7 | |
| 20260830223416 | 15 | 0.0 | 0.0 | 0.23 | 2.36 | 2.36 | 99 | 1017.6 | |
| 20260830222913 | 15 | 0.0 | 0.0 | 0.30 | 2.36 | 2.36 | 99 | 1017.1 | |
| 20260830222411 | 15 | 0.0 | 0.0 | 0.30 | 2.36 | 2.36 | 99 | 1016.9 | |
| 20260830221909 | 15 | 0.0 | 0.0 | 0.36 | 2.36 | 2.36 | 99 | 1017.0 | |
| 20260830221407 | 15 | 0.0 | 0.0 | 0.36 | 2.36 | 2.36 | 99 | 1016.9 | |
| 20260830220905 | 15 | 0.0 | 0.0 | 0.36 | 2.36 | 2.36 | 99 | 1017.1 | |
| 20260830220403 | 15 | 0.0 | 0.0 | 0.33 | 2.34 | 2.34 | 99 | 1017.4 | |
| 20260830215901 | 15 | 0.0 | 0.0 | 0.30 | 2.29 | 2.29 | 99 | 1017.9 | |
| 20260830215359 | 15 | 0.0 | 0.0 | 0.28 | 2.26 | 2.26 | 99 | 1018.1 | |
| 20260830214856 | 15 | 0.0 | 0.0 | 0.36 | 2.26 | 2.26 | 99 | 1018.0 | |
| 20260830214354 | 15 | 0.0 | 0.0 | 0.33 | 2.24 | 2.24 | 99 | 1017.8 | |
| 20260830213853 | 15 | 0.0 | 0.0 | 0.36 | 2.16 | 2.16 | 99 | 1017.6 | |
| 20260830213350 | 15 | 0.0 | 0.0 | 0.33 | 2.13 | 2.13 | 99 | 1017.6 | |
| 20260830212848 | 15 | 0.0 | 0.0 | 0.41 | 2.13 | 2.13 | 99 | 1017.3 | |
| 20260830212346 | 15 | 0.0 | 0.0 | 0.36 | 2.08 | 2.08 | 99 | 1017.4 | |
| 20260830211843 | 15 | 0.0 | 0.0 | 0.41 | 2.06 | 2.06 | 99 | 1017.5 | |
| 20260830211341 | 15 | 0.0 | 0.0 | 0.38 | 2.03 | 2.03 | 99 | 1017.5 | |
| 20260830210839 | 15 | 0.0 | 0.0 | 0.41 | 2.01 | 2.01 | 99 | 1017.6 | |
| 20260830210337 | 15 | 0.0 | 0.0 | 0.41 | 2.01 | 2.01 | 99 | 1017.6 | |
| 20260830205834 | 15 | 0.0 | 0.0 | 0.46 | 2.01 | 2.01 | 99 | 1017.5 | |
| 20260830205332 | 15 | 0.0 | 0.0 | 0.46 | 2.01 | 2.01 | 99 | 1018.2 | |
| 20260830204829 | 15 | 0.0 | 0.0 | 0.48 | 1.98 | 1.98 | 99 | 1017.5 | |
| 20260830204327 | 15 | 0.0 | 0.0 | 0.46 | 1.96 | 1.96 | 99 | 1017.4 | |
| 20260830203824 | 15 | 0.0 | 0.0 | 0.43 | 1.91 | 1.91 | 99 | 1017.9 | |
| 20260830203322 | 15 | 0.0 | 0.0 | 0.38 | 1.85 | 1.85 | 99 | 1018.0 | |
| 20260830202819 | 15 | 0.0 | 0.0 | 0.33 | 1.80 | 1.80 | 99 | 1018.7 | |
| 20260830202317 | 15 | 0.0 | 0.0 | 0.28 | 1.75 | 1.75 | 99 | 1018.8 | |
| 20260830201815 | 15 | 0.0 | 0.0 | 0.28 | 1.73 | 1.73 | 99 | 1019.1 | |
| 20260830201313 | 15 | 0.0 | 0.0 | 0.25 | 1.70 | 1.70 | 99 | 1019.4 | |
| 20260830200811 | 16 | 0.0 | 0.0 | 0.23 | 1.65 | 1.65 | 99 | 1019.7 | |
| 20260830200309 | 16 | 0.0 | 0.0 | 0.18 | 1.60 | 1.60 | 99 | 1019.5 | |
| 20260830195806 | 16 | 0.0 | 0.0 | 0.30 | 1.57 | 1.57 | 99 | 1019.4 | |
| 20260830195305 | 16 | 0.0 | 0.0 | 0.30 | 1.57 | 1.57 | 99 | 1018.9 | |
| 20260830194802 | 16 | 0.0 | 0.0 | 0.28 | 1.55 | 1.55 | 99 | 1019.3 | |
| 20260830194300 | 16 | 0.0 | 0.0 | 0.23 | 1.50 | 1.50 | 99 | 1019.4 | |
| 20260830193758 | 16 | 0.0 | 0.0 | 0.23 | 1.50 | 1.50 | 99 | 1018.1 | |
| 20260830193256 | 15 | 0.0 | 0.0 | 0.20 | 1.47 | 1.47 | 99 | 1017.3 | |
| 20260830192754 | 15 | 0.0 | 0.0 | 0.20 | 1.47 | 1.47 | 99 | 1017.0 | |
| 20260830192251 | 15 | 0.0 | 0.0 | 0.20 | 1.47 | 1.47 | 99 | 1017.1 | |
| 20260830191749 | 15 | 0.0 | 0.0 | 0.23 | 1.45 | 1.45 | 99 | 1016.9 | |
| 20260830191247 | 15 | 0.0 | 0.0 | 0.23 | 1.45 | 1.45 | 99 | 1017.0 | |
| 20260830190745 | 15 | 0.0 | 0.0 | 0.25 | 1.42 | 1.42 | 99 | 1018.2 | |
| 20260830190242 | 15 | 0.0 | 0.0 | 0.25 | 1.42 | 1.42 | 99 | 1018.5 | |
| 20260830185740 | 15 | 0.0 | 0.0 | 0.30 | 1.40 | 1.40 | 99 | 1018.5 | |
| 20260830185237 | 15 | 0.0 | 0.0 | 0.23 | 1.32 | 1.32 | 99 | 1019.0 | |
| 20260830184734 | 15 | 0.0 | 0.0 | 0.53 | 1.27 | 1.27 | 99 | 1018.8 | |
| 20260830184232 | 15 | 0.0 | 0.0 | 0.53 | 1.27 | 1.27 | 99 | 1018.6 | |
| 20260830183730 | 15 | 0.0 | 0.0 | 0.64 | 1.27 | 1.27 | 99 | 1018.6 | |
| 20260830183228 | 15 | 0.0 | 0.0 | 0.64 | 1.27 | 1.27 | 99 | 1018.6 | |
| 20260830182726 | 15 | 0.0 | 0.0 | 0.64 | 1.27 | 1.27 | 99 | 1018.0 | |
| 20260830182224 | 15 | 0.0 | 0.0 | 0.64 | 1.27 | 1.27 | 99 | 1017.9 | |
| 20260830181722 | 15 | 0.0 | 0.0 | 0.61 | 1.24 | 1.24 | 99 | 1018.2 | |
| 20260830181219 | 15 | 0.0 | 0.0 | 0.61 | 1.24 | 1.24 | 99 | 1018.3 | |
| 20260830180717 | 15 | 0.0 | 0.0 | 0.58 | 1.22 | 1.22 | 99 | 1018.8 | |
| 20260830180214 | 15 | 0.0 | 0.0 | 0.56 | 1.19 | 1.19 | 99 | 1018.6 | |
| 20260830175712 | 15 | 0.0 | 0.0 | 0.51 | 1.14 | 1.14 | 99 | 1018.4 | |
| 20260830175209 | 15 | 0.0 | 0.0 | 0.51 | 1.14 | 1.14 | 99 | 1017.6 | |
| 20260830174707 | 15 | 0.0 | 0.0 | 0.41 | 1.04 | 1.04 | 99 | 1018.2 | |
| 20260830174205 | 15 | 0.0 | 0.0 | 0.20 | 0.84 | 0.84 | 99 | 1018.7 | |
| 20260830173703 | 16 | 0.0 | 0.0 | 0.03 | 0.69 | 0.69 | 97 | 1017.9 | |
| 20260830173200 | 16 | 0.0 | 0.0 | 0.00 | 0.66 | 0.66 | 96 | 1017.0 | |
| 20260830172658 | 16 | 0.0 | 0.0 | 0.00 | 0.66 | 0.66 | 95 | 1017.4 | |
| 20260830172155 | 16 | 0.0 | 0.0 | 0.00 | 0.66 | 0.66 | 92 | 1017.0 | |
| 20260830171653 | 16 | 0.0 | 0.0 | 0.00 | 0.66 | 0.66 | 88 | 1017.2 | |
| 20260830171151 | 16 | 0.0 | 0.0 | 0.00 | 0.66 | 0.66 | 88 | 1017.6 | |
| 20260830170648 | 16 | 0.0 | 0.0 | 0.00 | 0.66 | 0.66 | 88 | 1018.2 | |
| 20260830170146 | 16 | 0.0 | 0.0 | 0.00 | 0.66 | 0.66 | 88 | 1018.3 | |
| 20260830165644 | 16 | 0.0 | 0.0 | 0.00 | 0.66 | 0.66 | 88 | 1018.2 | |
| 20260830165141 | 17 | 0.0 | 0.0 | 0.00 | 0.66 | 0.66 | 87 | 1017.9 | |
| 20260830164639 | 17 | 0.0 | 0.0 | 0.00 | 0.66 | 0.66 | 86 | 1018.1 | |
| 20260830164136 | 17 | 0.0 | 0.0 | 0.00 | 0.66 | 0.66 | 86 | 1017.8 | |
| 20260830163634 | 17 | 0.0 | 0.0 | 0.00 | 0.66 | 0.66 | 85 | 1017.7 | |
| 20260830163132 | 17 | 0.0 | 0.0 | 0.00 | 0.66 | 0.66 | 84 | 1017.8 | |
| 20260830162630 | 18 | 0.0 | 0.0 | 0.00 | 0.66 | 0.66 | 81 | 1017.9 | |
| 20260830162127 | 18 | 0.0 | 0.0 | 0.00 | 0.66 | 0.66 | 80 | 1017.6 | |
| 20260830161625 | 19 | 0.0 | 0.0 | 0.00 | 0.66 | 0.66 | 77 | 1017.6 | |
| 20260830161123 | 20 | 0.0 | 0.0 | 0.00 | 0.66 | 0.66 | 77 | 1017.5 | |
| 20260830160621 | 19 | 0.0 | 0.0 | 0.00 | 0.66 | 0.66 | 78 | 1017.7 | |
| 20260830160119 | 20 | 0.0 | 0.0 | 0.00 | 0.66 | 0.66 | 78 | 1017.8 | |
| 20260830155616 | 20 | 0.0 | 0.0 | 0.00 | 0.66 | 0.66 | 78 | 1018.0 | |
| 20260830155114 | 20 | 0.0 | 0.0 | 0.00 | 0.66 | 0.66 | 77 | 1018.0 | |
| 20260830154612 | 19 | 0.0 | 0.0 | 0.00 | 0.66 | 0.66 | 80 | 1018.0 | |
| 20260830154110 | 18 | 0.0 | 0.0 | 0.00 | 0.66 | 0.66 | 80 | 1018.2 | |
| 20260830153608 | 19 | 0.0 | 0.0 | 0.00 | 0.66 | 0.66 | 79 | 1018.4 | |
| 20260830153106 | 20 | 0.0 | 0.0 | 0.00 | 0.66 | 0.66 | 77 | 1018.4 | |
| 20260830152603 | 20 | 0.0 | 0.0 | 0.00 | 0.66 | 0.66 | 76 | 1018.3 |